![]() |
EMODnet Physics ERDDAP
Easier access to scientific data |
log in|
Brought to you by EMODnet Physics |
| Dataset Title: | NDBC - Collection of dew point temperature (DEWT) TimeSeries - IN SITU MultiPointTimeSeriesObservation
|
| Institution: | NDBC (Dataset ID: TS_DEWT_NDBC) |
| Information: | Summary
| License
| FGDC
| ISO 19115
| Metadata
| Background
| Subset
| Data Access Form
| Make a graph
|
| Name | Last modified | Size | Description | |
|---|---|---|---|---|
| Parent Directory | - | - | ||
| 41010_TS_DEWT_012003.nc | 02-Jan-2025 09:35 | 1477629 | ||
| 41010_TS_DEWT_012004.nc | 02-Jan-2025 09:38 | 1626944 | ||
| 41010_TS_DEWT_012005.nc | 02-Jan-2025 09:40 | 1626592 | ||
| 41010_TS_DEWT_012006.nc | 02-Jan-2025 09:45 | 1708126 | ||
| 41010_TS_DEWT_012007.nc | 02-Jan-2025 09:59 | 1670779 | ||
| 41010_TS_DEWT_012008.nc | 02-Jan-2025 10:09 | 1820888 | ||
| 41010_TS_DEWT_012009.nc | 02-Jan-2025 10:11 | 1825551 | ||
| 41010_TS_DEWT_012010.nc | 02-Jan-2025 10:19 | 1835258 | ||
| 41010_TS_DEWT_012011.nc | 02-Jan-2025 10:22 | 1833528 | ||
| 41010_TS_DEWT_012015.nc | 02-Jan-2025 10:40 | 1678148 | ||
| 41010_TS_DEWT_012016.nc | 02-Jan-2025 10:43 | 1312501 | ||
| 41010_TS_DEWT_012019.nc | 02-Jan-2025 10:56 | 1835459 | ||
| 41010_TS_DEWT_012020.nc | 02-Jan-2025 11:02 | 1834925 | ||
| 41010_TS_DEWT_012021.nc | 02-Jan-2025 11:07 | 4166764 | ||
| 41010_TS_DEWT_012022.nc | 02-Jan-2025 11:12 | 3722001 | ||
| 41010_TS_DEWT_012023.nc | 02-Jan-2025 11:17 | 1161295 | ||
| 41010_TS_DEWT_012025.nc | 07-Feb-2025 12:13 | 1475263 | ||
| 41010_TS_DEWT_022004.nc | 02-Jan-2025 09:38 | 1475934 | ||
| 41010_TS_DEWT_022005.nc | 02-Jan-2025 09:40 | 1472717 | ||
| 41010_TS_DEWT_022006.nc | 02-Jan-2025 09:45 | 1477031 | ||
| 41010_TS_DEWT_022007.nc | 02-Jan-2025 10:00 | 1477103 | ||
| 41010_TS_DEWT_022008.nc | 02-Jan-2025 10:09 | 1476384 | ||
| 41010_TS_DEWT_022009.nc | 02-Jan-2025 10:16 | 1476238 | ||
| 41010_TS_DEWT_022010.nc | 02-Jan-2025 10:19 | 1681882 | ||
| 41010_TS_DEWT_022011.nc | 02-Jan-2025 10:22 | 1665625 | ||
| 41010_TS_DEWT_022015.nc | 02-Jan-2025 10:40 | 1666385 | ||
| 41010_TS_DEWT_022016.nc | 02-Jan-2025 10:43 | 1672640 | ||
| 41010_TS_DEWT_022018.nc | 02-Jan-2025 10:48 | 1679777 | ||
| 41010_TS_DEWT_022019.nc | 02-Jan-2025 10:57 | 1660521 | ||
| 41010_TS_DEWT_022020.nc | 02-Jan-2025 11:02 | 1672099 | ||
| 41010_TS_DEWT_022021.nc | 02-Jan-2025 11:07 | 1677071 | ||
| 41010_TS_DEWT_022022.nc | 02-Jan-2025 11:12 | 1680259 | ||
| 41010_TS_DEWT_022023.nc | 02-Jan-2025 11:17 | 1679844 | ||
| 41010_TS_DEWT_022025.nc | 01-Mar-2025 09:21 | 4889089 | ||
| 41010_TS_DEWT_032003.nc | 02-Jan-2025 09:36 | 1163324 | ||
| 41010_TS_DEWT_032004.nc | 02-Jan-2025 09:38 | 1477757 | ||
| 41010_TS_DEWT_032005.nc | 02-Jan-2025 09:40 | 1461506 | ||
| 41010_TS_DEWT_032006.nc | 02-Jan-2025 09:46 | 1477828 | ||
| 41010_TS_DEWT_032007.nc | 02-Jan-2025 10:02 | 1626890 | ||
| 41010_TS_DEWT_032008.nc | 02-Jan-2025 10:09 | 1626826 | ||
| 41010_TS_DEWT_032009.nc | 02-Jan-2025 10:16 | 1626888 | ||
| 41010_TS_DEWT_032010.nc | 02-Jan-2025 10:19 | 1626632 | ||
| 41010_TS_DEWT_032011.nc | 02-Jan-2025 10:22 | 1626563 | ||
| 41010_TS_DEWT_032015.nc | 02-Jan-2025 10:41 | 1832694 | ||
| 41010_TS_DEWT_032016.nc | 02-Jan-2025 10:44 | 1670001 | ||
| 41010_TS_DEWT_032018.nc | 02-Jan-2025 10:49 | 1787662 | ||
| 41010_TS_DEWT_032019.nc | 02-Jan-2025 10:57 | 1831345 | ||
| 41010_TS_DEWT_032020.nc | 02-Jan-2025 11:02 | 1830420 | ||
| 41010_TS_DEWT_032021.nc | 02-Jan-2025 11:07 | 1829786 | ||
| 41010_TS_DEWT_032022.nc | 02-Jan-2025 11:13 | 1827868 | ||
| 41010_TS_DEWT_032023.nc | 02-Jan-2025 11:18 | 1827945 | ||
| 41010_TS_DEWT_032025.nc | 02-Apr-2025 07:34 | 1833644 | ||
| 41010_TS_DEWT_042003.nc | 02-Jan-2025 09:36 | 1832147 | ||
| 41010_TS_DEWT_042004.nc | 02-Jan-2025 09:38 | 5412399 | ||
| 41010_TS_DEWT_042005.nc | 02-Jan-2025 09:40 | 1151097 | ||
| 41010_TS_DEWT_042006.nc | 02-Jan-2025 09:48 | 1476405 | ||
| 41010_TS_DEWT_042007.nc | 02-Jan-2025 10:03 | 996098 | ||
| 41010_TS_DEWT_042008.nc | 02-Jan-2025 10:09 | 1474053 | ||
| 41010_TS_DEWT_042009.nc | 02-Jan-2025 10:16 | 1477053 | ||
| 41010_TS_DEWT_042010.nc | 02-Jan-2025 10:19 | 1476028 | ||
| 41010_TS_DEWT_042011.nc | 02-Jan-2025 10:22 | 1475552 | ||
| 41010_TS_DEWT_042014.nc | 02-Jan-2025 10:32 | 1476246 | ||
| 41010_TS_DEWT_042015.nc | 02-Jan-2025 10:41 | 1476800 | ||
| 41010_TS_DEWT_042016.nc | 02-Jan-2025 10:44 | 1675149 | ||
| 41010_TS_DEWT_042017.nc | 02-Jan-2025 10:45 | 1675558 | ||
| 41010_TS_DEWT_042018.nc | 02-Jan-2025 10:49 | 1636313 | ||
| 41010_TS_DEWT_042019.nc | 02-Jan-2025 10:58 | 1678967 | ||
| 41010_TS_DEWT_042020.nc | 02-Jan-2025 11:03 | 1676793 | ||
| 41010_TS_DEWT_042021.nc | 02-Jan-2025 11:08 | 1667251 | ||
| 41010_TS_DEWT_042022.nc | 02-Jan-2025 11:13 | 1669586 | ||
| 41010_TS_DEWT_042023.nc | 02-Jan-2025 11:18 | 1676576 | ||
| 41010_TS_DEWT_042025.nc | 01-May-2025 04:48 | 1675832 | ||
| 41010_TS_DEWT_052003.nc | 02-Jan-2025 09:36 | 1674871 | ||
| 41010_TS_DEWT_052004.nc | 02-Jan-2025 09:38 | 5299847 | ||
| 41010_TS_DEWT_052005.nc | 02-Jan-2025 09:41 | 429679 | ||
| 41010_TS_DEWT_052006.nc | 02-Jan-2025 09:49 | 1626511 | ||
| 41010_TS_DEWT_052007.nc | 02-Jan-2025 10:03 | 606483 | ||
| 41010_TS_DEWT_052008.nc | 02-Jan-2025 10:09 | 1626870 | ||
| 41010_TS_DEWT_052009.nc | 02-Jan-2025 10:17 | 1626774 | ||
| 41010_TS_DEWT_052010.nc | 02-Jan-2025 10:19 | 1477265 | ||
| 41010_TS_DEWT_052011.nc | 02-Jan-2025 10:23 | 1626930 | ||
| 41010_TS_DEWT_052014.nc | 02-Jan-2025 10:33 | 1626517 | ||
| 41010_TS_DEWT_052015.nc | 02-Jan-2025 10:41 | 1626225 | ||
| 41010_TS_DEWT_052016.nc | 02-Jan-2025 10:44 | 1831052 | ||
| 41010_TS_DEWT_052017.nc | 02-Jan-2025 10:46 | 1824631 | ||
| 41010_TS_DEWT_052018.nc | 02-Jan-2025 10:50 | 1648752 | ||
| 41010_TS_DEWT_052019.nc | 02-Jan-2025 10:58 | 1825789 | ||
| 41010_TS_DEWT_052020.nc | 02-Jan-2025 11:03 | 1832251 | ||
| 41010_TS_DEWT_052021.nc | 02-Jan-2025 11:08 | 1674475 | ||
| 41010_TS_DEWT_052022.nc | 02-Jan-2025 11:13 | 1644172 | ||
| 41010_TS_DEWT_052024.nc | 05-Jan-2025 14:27 | 1718868 | ||
| 41010_TS_DEWT_052025.nc | 01-Jun-2025 05:00 | 1829574 | ||
| 41010_TS_DEWT_062003.nc | 02-Jan-2025 09:36 | 1831134 | ||
| 41010_TS_DEWT_062004.nc | 02-Jan-2025 09:39 | 4770253 | ||
| 41010_TS_DEWT_062005.nc | 02-Jan-2025 09:41 | 428816 | ||
| 41010_TS_DEWT_062006.nc | 02-Jan-2025 09:50 | 1476425 | ||
| 41010_TS_DEWT_062007.nc | 02-Jan-2025 10:04 | 1471086 | ||
| 41010_TS_DEWT_062008.nc | 02-Jan-2025 10:10 | 1626768 | ||
| 41010_TS_DEWT_062009.nc | 02-Jan-2025 10:17 | 1626927 | ||
| 41010_TS_DEWT_062010.nc | 02-Jan-2025 10:20 | 1626880 | ||
| 41010_TS_DEWT_062011.nc | 02-Jan-2025 10:23 | 1626975 | ||
| 41010_TS_DEWT_062014.nc | 02-Jan-2025 10:33 | 1626913 | ||
| 41010_TS_DEWT_062015.nc | 02-Jan-2025 10:41 | 1626371 | ||
| 41010_TS_DEWT_062016.nc | 02-Jan-2025 10:44 | 1832411 | ||
| 41010_TS_DEWT_062017.nc | 02-Jan-2025 10:46 | 1828890 | ||
| 41010_TS_DEWT_062018.nc | 02-Jan-2025 10:52 | 1825439 | ||
| 41010_TS_DEWT_062019.nc | 02-Jan-2025 10:58 | 1834209 | ||
| 41010_TS_DEWT_062020.nc | 02-Jan-2025 11:04 | 1833902 | ||
| 41010_TS_DEWT_062021.nc | 02-Jan-2025 11:09 | 1676795 | ||
| 41010_TS_DEWT_062022.nc | 02-Jan-2025 11:14 | 1829344 | ||
| 41010_TS_DEWT_062024.nc | 17-Jan-2025 05:45 | 1727359 | ||
| 41010_TS_DEWT_062025.nc | 01-Jul-2025 05:07 | 1833635 | ||
| 41010_TS_DEWT_072003.nc | 02-Jan-2025 09:36 | 1833164 | ||
| 41010_TS_DEWT_072004.nc | 02-Jan-2025 09:39 | 5868448 | ||
| 41010_TS_DEWT_072005.nc | 02-Jan-2025 09:41 | 424211 | ||
| 41010_TS_DEWT_072006.nc | 02-Jan-2025 09:51 | 1476692 | ||
| 41010_TS_DEWT_072007.nc | 02-Jan-2025 10:05 | 1469925 | ||
| 41010_TS_DEWT_072008.nc | 02-Jan-2025 10:10 | 1474269 | ||
| 41010_TS_DEWT_072009.nc | 02-Jan-2025 10:17 | 1476724 | ||
| 41010_TS_DEWT_072010.nc | 02-Jan-2025 10:20 | 1471517 | ||
| 41010_TS_DEWT_072011.nc | 02-Jan-2025 10:23 | 1477048 | ||
| 41010_TS_DEWT_072014.nc | 02-Jan-2025 10:34 | 1476818 | ||
| 41010_TS_DEWT_072015.nc | 02-Jan-2025 10:42 | 1477074 | ||
| 41010_TS_DEWT_072016.nc | 02-Jan-2025 10:45 | 1668726 | ||
| 41010_TS_DEWT_072017.nc | 02-Jan-2025 10:46 | 1677209 | ||
| 41010_TS_DEWT_072018.nc | 02-Jan-2025 10:52 | 1666543 | ||
| 41010_TS_DEWT_072019.nc | 02-Jan-2025 10:59 | 1676461 | ||
| 41010_TS_DEWT_072020.nc | 02-Jan-2025 11:04 | 1678914 | ||
| 41010_TS_DEWT_072021.nc | 02-Jan-2025 11:09 | 1666029 | ||
| 41010_TS_DEWT_072022.nc | 02-Jan-2025 11:14 | 1674283 | ||
| 41010_TS_DEWT_072024.nc | 17-Jan-2025 05:46 | 1675125 | ||
| 41010_TS_DEWT_072025.nc | 16-Aug-2025 08:18 | 1673541 | ||
| 41010_TS_DEWT_082003.nc | 02-Jan-2025 09:37 | 1674736 | ||
| 41010_TS_DEWT_082004.nc | 02-Jan-2025 09:39 | 4851974 | ||
| 41010_TS_DEWT_082005.nc | 02-Jan-2025 09:41 | 429771 | ||
| 41010_TS_DEWT_082006.nc | 02-Jan-2025 09:52 | 1460962 | ||
| 41010_TS_DEWT_082007.nc | 02-Jan-2025 10:05 | 1474346 | ||
| 41010_TS_DEWT_082008.nc | 02-Jan-2025 10:10 | 1476364 | ||
| 41010_TS_DEWT_082009.nc | 02-Jan-2025 10:17 | 1625914 | ||
| 41010_TS_DEWT_082010.nc | 02-Jan-2025 10:20 | 1626878 | ||
| 41010_TS_DEWT_082014.nc | 02-Jan-2025 10:34 | 1475765 | ||
| 41010_TS_DEWT_082015.nc | 02-Jan-2025 10:42 | 1626884 | ||
| 41010_TS_DEWT_082016.nc | 02-Jan-2025 10:45 | 1626986 | ||
| 41010_TS_DEWT_082017.nc | 02-Jan-2025 10:47 | 1832606 | ||
| 41010_TS_DEWT_082018.nc | 02-Jan-2025 10:53 | 1831176 | ||
| 41010_TS_DEWT_082019.nc | 02-Jan-2025 10:59 | 1673414 | ||
| 41010_TS_DEWT_082020.nc | 02-Jan-2025 11:04 | 1829349 | ||
| 41010_TS_DEWT_082021.nc | 02-Jan-2025 11:09 | 1837389 | ||
| 41010_TS_DEWT_082022.nc | 02-Jan-2025 11:15 | 1680932 | ||
| 41010_TS_DEWT_082024.nc | 17-Jan-2025 05:46 | 1828697 | ||
| 41010_TS_DEWT_092002.nc | 02-Jan-2025 09:34 | 1830868 | ||
| 41010_TS_DEWT_092003.nc | 02-Jan-2025 09:37 | 1600437 | ||
| 41010_TS_DEWT_092004.nc | 02-Jan-2025 09:39 | 1830949 | ||
| 41010_TS_DEWT_092005.nc | 02-Jan-2025 09:41 | 5447417 | ||
| 41010_TS_DEWT_092006.nc | 02-Jan-2025 09:53 | 429487 | ||
| 41010_TS_DEWT_092007.nc | 02-Jan-2025 10:07 | 1463990 | ||
| 41010_TS_DEWT_092008.nc | 02-Jan-2025 10:10 | 1476858 | ||
| 41010_TS_DEWT_092009.nc | 02-Jan-2025 10:18 | 1477056 | ||
| 41010_TS_DEWT_092010.nc | 02-Jan-2025 10:21 | 1476693 | ||
| 41010_TS_DEWT_092014.nc | 02-Jan-2025 10:34 | 1476941 | ||
| 41010_TS_DEWT_092015.nc | 02-Jan-2025 10:42 | 1477011 | ||
| 41010_TS_DEWT_092017.nc | 02-Jan-2025 10:47 | 1477084 | ||
| 41010_TS_DEWT_092018.nc | 02-Jan-2025 10:54 | 1476420 | ||
| 41010_TS_DEWT_092019.nc | 02-Jan-2025 11:00 | 1672881 | ||
| 41010_TS_DEWT_092020.nc | 02-Jan-2025 11:05 | 1673439 | ||
| 41010_TS_DEWT_092021.nc | 02-Jan-2025 11:10 | 1655888 | ||
| 41010_TS_DEWT_092022.nc | 02-Jan-2025 11:15 | 1269820 | ||
| 41010_TS_DEWT_092024.nc | 17-Jan-2025 05:47 | 1679642 | ||
| 41010_TS_DEWT_102002.nc | 02-Jan-2025 09:35 | 1666355 | ||
| 41010_TS_DEWT_102003.nc | 02-Jan-2025 09:37 | 1660315 | ||
| 41010_TS_DEWT_102004.nc | 02-Jan-2025 09:39 | 1676065 | ||
| 41010_TS_DEWT_102005.nc | 02-Jan-2025 09:42 | 1680233 | ||
| 41010_TS_DEWT_102006.nc | 02-Jan-2025 09:54 | 1678540 | ||
| 41010_TS_DEWT_102007.nc | 02-Jan-2025 10:08 | 5946796 | ||
| 41010_TS_DEWT_102008.nc | 02-Jan-2025 10:11 | 5165683 | ||
| 41010_TS_DEWT_102009.nc | 02-Jan-2025 10:18 | 429912 | ||
| 41010_TS_DEWT_102010.nc | 02-Jan-2025 10:21 | 1625969 | ||
| 41010_TS_DEWT_102014.nc | 02-Jan-2025 10:35 | 1626645 | ||
| 41010_TS_DEWT_102015.nc | 02-Jan-2025 10:42 | 1626940 | ||
| 41010_TS_DEWT_102018.nc | 02-Jan-2025 10:55 | 1624809 | ||
| 41010_TS_DEWT_102019.nc | 02-Jan-2025 11:00 | 1626915 | ||
| 41010_TS_DEWT_102020.nc | 02-Jan-2025 11:05 | 1626905 | ||
| 41010_TS_DEWT_102021.nc | 02-Jan-2025 11:10 | 1626883 | ||
| 41010_TS_DEWT_102022.nc | 02-Jan-2025 11:16 | 1626841 | ||
| 41010_TS_DEWT_102024.nc | 17-Jan-2025 06:13 | 1829585 | ||
| 41010_TS_DEWT_112002.nc | 02-Jan-2025 09:35 | 1832352 | ||
| 41010_TS_DEWT_112003.nc | 02-Jan-2025 09:37 | 1830517 | ||
| 41010_TS_DEWT_112005.nc | 02-Jan-2025 09:43 | 1644297 | ||
| 41010_TS_DEWT_112006.nc | 02-Jan-2025 09:56 | 1681826 | ||
| 41010_TS_DEWT_112007.nc | 02-Jan-2025 10:08 | 1672347 | ||
| 41010_TS_DEWT_112008.nc | 02-Jan-2025 10:11 | 1836246 | ||
| 41010_TS_DEWT_112009.nc | 02-Jan-2025 10:18 | 1835889 | ||
| 41010_TS_DEWT_112010.nc | 02-Jan-2025 10:21 | 1673752 | ||
| 41010_TS_DEWT_112014.nc | 02-Jan-2025 10:35 | 1661135 | ||
| 41010_TS_DEWT_112015.nc | 02-Jan-2025 10:43 | 5809885 | ||
| 41010_TS_DEWT_112018.nc | 02-Jan-2025 10:55 | 5062498 | ||
| 41010_TS_DEWT_112019.nc | 02-Jan-2025 11:01 | 433975 | ||
| 41010_TS_DEWT_112020.nc | 02-Jan-2025 11:06 | 1611705 | ||
| 41010_TS_DEWT_112021.nc | 02-Jan-2025 11:11 | 1304808 | ||
| 41010_TS_DEWT_112022.nc | 02-Jan-2025 11:16 | 1636835 | ||
| 41010_TS_DEWT_112024.nc | 17-Jan-2025 15:17 | 1670081 | ||
| 41010_TS_DEWT_122002.nc | 02-Jan-2025 09:35 | 977018 | ||
| 41010_TS_DEWT_122003.nc | 02-Jan-2025 09:37 | 454179 | ||
| 41010_TS_DEWT_122004.nc | 02-Jan-2025 09:39 | 1304360 | ||
| 41010_TS_DEWT_122005.nc | 02-Jan-2025 09:44 | 1632302 | ||
| 41010_TS_DEWT_122006.nc | 02-Jan-2025 09:58 | 1639569 | ||
| 41010_TS_DEWT_122007.nc | 02-Jan-2025 10:08 | 1295495 | ||
| 41010_TS_DEWT_122008.nc | 02-Jan-2025 10:11 | 673867 | ||
| 41010_TS_DEWT_122009.nc | 02-Jan-2025 10:18 | 427355 | ||
| 41010_TS_DEWT_122010.nc | 02-Jan-2025 10:21 | 470373 | ||
| 41010_TS_DEWT_122014.nc | 02-Jan-2025 10:40 | 1821605 | ||
| 41010_TS_DEWT_122015.nc | 02-Jan-2025 10:43 | 1303801 | ||
| 41010_TS_DEWT_122018.nc | 02-Jan-2025 10:55 | 1615168 | ||
| 41010_TS_DEWT_122019.nc | 02-Jan-2025 11:01 | 1638867 | ||
| 41010_TS_DEWT_122020.nc | 02-Jan-2025 11:06 | 670376 | ||
| 41010_TS_DEWT_122021.nc | 02-Jan-2025 11:11 | 460650 | ||
| 41010_TS_DEWT_122022.nc | 02-Jan-2025 11:17 | 1676285 | ||
| 41010_TS_DEWT_122024.nc | 22-Jan-2025 16:47 | 1211111 | ||